This is the latest recevied weather packets stored in our database for station/object HP3ICC-22. If no packets are shown the sender has not sent any weather packets the latest 10 day(s).
| Time | Temp. | Humidity | Pressure | Rain* | Wind** | Luminosity | Snow |
|---|---|---|---|---|---|---|---|
| 1777177005 | 8.89° C | 93% | 1013 hPa | 0.51 mm | - | - | - |
| 1777175865 | 9.44° C | 93% | 1014 hPa | 0.51 mm | - | - | - |
| 1777175805 | 9.44° C | 93% | 1014 hPa | 0.51 mm | - | - | - |
| 1777174665 | 10° C | 82% | 1014 hPa | 0.51 mm | - | - | - |
| 1777174605 | 10° C | 82% | 1014 hPa | 0.51 mm | - | - | - |
| 1777173464 | 9.44° C | 93% | 1013 hPa | 0.25 mm | - | - | - |
| 1777173404 | 9.44° C | 93% | 1013 hPa | 0.25 mm | - | - | - |
| 1777172264 | 10° C | 82% | 1014 hPa | 0.25 mm | - | - | - |
| 1777172204 | 10° C | 82% | 1014 hPa | 0.25 mm | - | - | - |
| 1777171063 | 9.44° C | 89% | 1014 hPa | 0.25 mm | - | - | - |
| 1777171003 | 9.44° C | 89% | 1014 hPa | 0.25 mm | - | - | - |
| 1777169863 | 9.44° C | 84% | 1012 hPa | 0 mm | - | - | - |
| 1777169802 | 9.44° C | 84% | 1012 hPa | 0 mm | - | - | - |
| 1777168662 | 10.56° C | 82% | 1013 hPa | 0 mm | - | - | - |
| 1777168602 | 10.56° C | 82% | 1013 hPa | 0 mm | - | - | - |
| 1777167462 | 9.44° C | 93% | 1013 hPa | 0 mm | - | - | - |
| 1777167401 | 9.44° C | 93% | 1013 hPa | 0 mm | - | - | - |
| 1777166261 | 10° C | 93% | 1011 hPa | 0 mm | - | - | - |
| 1777166201 | 10° C | 93% | 1011 hPa | 0 mm | - | - | - |
| 1777165060 | 10.56° C | 82% | 1012 hPa | 0 mm | - | - | - |
| 1777165000 | 10.56° C | 82% | 1012 hPa | 0 mm | - | - | - |
| 1777163860 | 9.44° C | 86% | 1013 hPa | 0.25 mm | - | - | - |
| 1777163800 | 9.44° C | 86% | 1013 hPa | 0.25 mm | - | - | - |
| 1777162659 | 10° C | 86% | 1012 hPa | 0.25 mm | - | - | - |
| 1777162599 | 10° C | 86% | 1012 hPa | 0.25 mm | - | - | - |
* Rain latest hour (hover to see other rain measurements)
** Current wind speed in m/s (hover to see current wind gust speed)